Weather Service Report


948 
ASUS43 KBIS 290320
RWRBIS

NWR BROADCAST TEXT
NATIONAL WEATHER SERVICE BISMARCK ND
1000 PM CDT MON JUL 28 2014

NOTE: "FAIR" INDICATES FEW OR NO CLOUDS BELOW 12,000 FEET WITH NO
SIGNIFICANT WEATHER AND/OR OBSTRUCTIONS TO VISIBILITY.

  
CITY           SKY/WX    TMP DP  RH WIND       PRES   REMARKS
WILLISTON      CLEAR     71  52  50 E6        30.21R                  
MINOT          CLEAR     63  54  72 SE3       30.22S                  
MINOT AFB      CLEAR     65  58  80 S2        30.22R                  
BISMARCK       CLEAR     61  53  75 SE3       30.24R                  
DICKINSON      CLEAR     62  55  77 E8        30.24R                  
GARRISON         N/A     64  56  75 CALM      30.23S                  
HETTINGER ARPT PTCLDY    65  52  62 E8        30.26R                  
JAMESTOWN      CLEAR     61  55  81 CALM      30.22R                  
CARRINGTON     FAIR      59  57  94 CALM      30.24R                  
CROSBY           N/A     61  61 100 E5        30.23R                  
HARVEY         FAIR      59  54  82 CALM      30.23R                  
HAZEN          FAIR      57  54  88 SE5       30.24S                  
LINTON         FAIR      59  52  77 E5        30.24S                  
MANDAN         FAIR      64  54  68 SE5       30.25S                  
RUGBY          FAIR      59  55  88 CALM      30.22R                  
STANLEY        FAIR      63  63 100 SE5       30.24S                  
TIOGA          MOCLDY    61  61 100 E5        30.26S                  
WATFORD CITY   FAIR      63  55  77 SE6       30.20S                  
$$
  
CITY           SKY/WX    TMP DP  RH WIND       PRES   REMARKS
GRAND FORKS    CLEAR     60  57  89 W3        30.18S                  
GRAND FORKS AF CLEAR     59  59 100 W2        30.20R                  
DEVILS LAKE    CLEAR     63  54  72 W5        30.20S                  
FARGO          PTCLDY    64  54  69 N5        30.18S                  
CANDO          FAIR      61  55  82 CALM      30.22S                  
CAVALIER       FAIR      59  55  88 W3        30.19S                  
GRAFTON        FAIR      64  57  77 NW3       30.18S                  
GWINNER        CLEAR     61  55  82 NW3       30.23R                  
LANGDON        FAIR      57  55  94 CALM      30.21S                  
ROLLA          FAIR      55  55 100 W5        30.24S                  
WALHALLA         N/A     61  61 100 CALM        N/A                   
$$
  
CITY           SKY/WX    TMP DP  RH WIND       PRES   REMARKS
ABERDEEN       CLEAR     58  53  84 CALM      30.22S                  
MOBRIDGE       CLEAR     64  50  60 NE8       30.22R                  
BUFFALO          N/A     67  54  63 E10       30.19R                  
RAPID CITY     CLEAR     68  52  56 E14       30.24R                  
GLASGOW        CLEAR     76  50  40 E10       30.18R                  
SIDNEY         CLEAR     72  52  49 CALM      30.22R                  
WOLF POINT     CLEAR     75  47  36 NE5       30.19R                  
GLENDIVE       PTCLDY    73  52  46 E8        30.22S                  
MILES CITY     CLEAR     76  45  33 NE10      30.18S                  
BAKER          CLEAR     68  53  58 SE7       30.25R                  
$$
  
CITY           SKY/WX    TMP DP  RH WIND       PRES   REMARKS
BILLINGS       CLOUDY    81  47  30 E12       30.17S                  
GREAT FALLS    MOCLDY    80  38  22 N9        30.13R                  
REGINA         PTCLDY    70  59  68 SE6       30.22R                  
ESTEVAN        MOCLDY    66  61  82 E5        30.23S                  
$$



949 
ASUS43 KBIS 290320
RWRND 

NORTH DAKOTA REGIONAL WEATHER ROUNDUP
NATIONAL WEATHER SERVICE BISMARCK ND
1000 PM CDT MON JUL 28 2014

NOTE: "FAIR" INDICATES FEW OR NO CLOUDS BELOW 12,000 FEET WITH NO
SIGNIFICANT WEATHER AND/OR OBSTRUCTIONS TO VISIBILITY.


NDZ001>003-009>011-017-290400-
NORTHWEST NORTH DAKOTA
  
CITY           SKY/WX    TMP DP  RH WIND       PRES   REMARKS
WILLISTON      CLEAR     71  52  50 E6        30.21R                  
MINOT          CLEAR     63  54  72 SE3       30.22S                  
MINOT AFB      CLEAR     65  58  80 S2        30.22R                  
$$
 
NDZ018>021-031>035-040>046-290400-
SOUTHWEST NORTH DAKOTA
  
CITY           SKY/WX    TMP DP  RH WIND       PRES   REMARKS
BISMARCK       CLEAR     61  53  75 SE3       30.24R                  
DICKINSON      CLEAR     62  55  77 E8        30.24R                  
GARRISON         N/A     64  56  75 CALM      30.23S                  
HETTINGER ARPT PTCLDY    65  52  62 E8        30.26R                  
$$
 
NDZ004>008-012>016-024-026-027-054-290400-
NORTHEAST NORTH DAKOTA
  
CITY           SKY/WX    TMP DP  RH WIND       PRES   REMARKS
GRAND FORKS    CLEAR     60  57  89 W3        30.18S                  
GRND FRKS AFB  CLEAR     59  59 100 W2        30.20R                  
DEVILS LAKE    CLEAR     63  54  72 W5        30.20S                  
$$
 
NDZ022-023-025-028>030-036>039-047>053-290400-
SOUTHEAST NORTH DAKOTA
  
CITY           SKY/WX    TMP DP  RH WIND       PRES   REMARKS
FARGO          PTCLDY    64  54  69 N5        30.18S                  
JAMESTOWN      CLEAR     61  55  81 CALM      30.22R                  
$$ 


Return to Home page


Western Regional Climate Center, wrcc@dri.edu